Flag for Botswana Weather past 2 weeks in Francistown, Botswana

Now
64 °F

Partly sunny.


Feels Like: 64 °F
Forecast: 51 / 65 °F
Wind: 14 mph from East

Location: Francistown Airport

Current Time: Jul 28, 2014 at 11:16:00 AM

Latest Report: Jul 28, 2014 at 10:00 AM


Visibility: N/A

Pressure: 30.39 "Hg

Humidity: 64%

Dew point: 52 °F

Location of FrancistownLocation

Historic Weather in Francistown — Graph

°F

Francistown temperature yesterday

Maximum temperature yesterday: 82 °F (at 3:00 PM)
Minimum temperature yesterday: 37 °F (at 5:00 AM)
Average temperature yesterday: 61 °F

Past Weeks' High & Low Weather Summary

 TemperatureHumidityPressure
High84 °F (Jul 26, 2:00 PM)100% (Jul 21, 4:00 AM)30.45 "Hg (Jul 21, 4:00 AM)
Low30 °F (Jul 23, 7:00 AM)11% (Jul 26, 4:00 PM)30.04 "Hg (Jul 18, 3:00 PM)
Average57 °F46%30.24 "Hg
* Reported Jul 13 10:00 AM — Jul 28 10:00 AM, Francistown, Weather by CustomWeather, © 2014

Note: Actual official high and low records may vary slightly from our data, if they occured in-between our weather recording intervals... More about our weather records

Advertising

Francistown weather history for previous 24 hours

 ConditionsComfort  
Time TempWeatherWind HumidityBarometerVisibility
10:00 AM
Jul 28
64 °FPartly sunny.14 mph64%30.39 "HgN/A
9:00 AM64 °FSunny.15 mph32%30.33 "Hg10 mi
8:00 AM59 °FPartly sunny.9 mph82%30.33 "HgN/A
7:00 AM59 °FPartly sunny.10 mph82%30.33 "HgN/A
6:00 AM57 °FLow clouds.12 mph88%30.30 "HgN/A
9:00 PM
Jul 27
59 °FClear.5 mph29%30.24 "Hg10 mi
8:00 PM63 °FClear.6 mph25%30.24 "Hg10 mi
7:00 PM66 °FClear.5 mph22%30.21 "Hg10 mi
6:00 PM72 °FClear.8 mph19%30.21 "Hg10 mi
5:00 PM79 °FClear.12 mph15%30.18 "Hg10 mi
4:00 PM82 °FSunny.7 mph14%30.18 "Hg10 mi
3:00 PM82 °FSunny.6 mph14%30.18 "Hg10 mi
2:00 PM81 °FSunny.6 mph15%30.21 "Hg10 mi
1:00 PM79 °FSunny.12 mph17%30.24 "Hg10 mi
12:00 PM75 °FSunny.9 mph19%30.24 "Hg10 mi
11:00 AM72 °FSunny.8 mph20%30.27 "Hg10 mi
Weather by CustomWeather, © 2014

See weather overviewHow to use our weather pages